Weather History for Tallahassee, FL

Change the Weather History Date:

Friday, June 14, 2013

  Actual Average Record
Temperature  
Mean Temperature 87 °F 80 °F  
Max Temperature 96 °F 91 °F 103 °F (2011)
Min Temperature 78 °F 70 °F 55 °F (1995)
Degree Days  
Heating Degree Days 0    
Month to date heating degree days 0  
Since 1 June heating degree days 0  
Since 1 July heating degree days 1332  
Cooling Degree Days 22    
Month to date cooling degree days 241  
Year to date cooling degree days 703  
Since 1 June cooling degree days 241  
Growing Degree Days 37 (Base 50)    
Moisture  
Dew Point 71 °F    
Average Humidity 62    
Maximum Humidity 85    
Minimum Humidity 39    
Precipitation  
Precipitation 0.00 in 0.28 in 4.28 in (1947)
Month to date precipitation 3.09 3.33  
Year to date precipitation 25.48 24.99  
Sea Level Pressure  
Sea Level Pressure 29.86 in    
Wind  
Wind Speed 7 mph (WNW)    
Max Wind Speed 18 mph    
Max Gust Speed 22 mph    
Visibility 10 miles    
Events      
T = Trace of Precipitation, MM = Missing Value Source: NWS Daily Summary

Daily Weather History Graph

Daily Weather History Graph

Search for Another Location

Airport:

Trip Planner

Search our weather history database for the weather conditions in past years. The results will help you decide how hot, cold, wet, or windy it might be!

Date:

Astronomy

Jun. 14, 2013 Rise Set
Actual Time 6:34 AM EDT 8:40 PM EDT
Civil Twilight 6:07 AM EDT 9:08 PM EDT
Nautical Twilight 5:33 AM EDT 9:41 PM EDT
Astronomical Twilight 4:57 AM EDT 10:17 PM EDT
Moon 11:49 AM EDT (6/14) 12:04 AM EDT (6/14)
Length of Visible Light 15h 01m
Length of Day
14h 05m
Waxing Crescent, 30% of the Moon is Illuminated
Jun 14
Waxing Crescent
Jun 16
First Quarter
Jun 23
Full
Jun 30
Last Quarter
Jul 8
New

Hourly Weather History & Observations

Time (EDT) Temp. Heat Index Dew Point Humidity Pressure Visibility Wind Dir Wind Speed Gust Speed Precip Events Conditions
12:53 AM 81.0 °F 86.2 °F 73.9 °F 79% 29.90 in 10.0 mi SW 4.6 mph - N/A   Clear
1:53 AM 81.0 °F 86.7 °F 75.0 °F 82% 29.90 in 10.0 mi WNW 8.1 mph - N/A   Scattered Clouds
2:53 AM 80.1 °F 84.5 °F 73.9 °F 81% 29.84 in 10.0 mi WSW 15.0 mph - N/A   Clear
3:53 AM 81.0 °F 85.8 °F 73.0 °F 77% 29.85 in 10.0 mi West 12.7 mph - N/A   Clear
4:53 AM 81.0 °F 85.8 °F 73.0 °F 77% 29.82 in 10.0 mi WSW 5.8 mph - N/A   Clear
5:53 AM 79.0 °F - 73.0 °F 82% 29.84 in 10.0 mi SW 3.5 mph - N/A   Clear
6:48 AM 78.8 °F - 73.4 °F 83% 29.86 in 10.0 mi Calm Calm - N/A   Mostly Cloudy
6:53 AM 78.1 °F - 73.0 °F 84% 29.86 in 10.0 mi Calm Calm - N/A   Mostly Cloudy
7:18 AM 78.8 °F - 73.4 °F 83% 29.87 in 10.0 mi SW 3.5 mph - N/A   Scattered Clouds
7:53 AM 80.1 °F 84.5 °F 73.9 °F 81% 29.88 in 10.0 mi WSW 3.5 mph - N/A   Scattered Clouds
8:53 AM 84.0 °F 91.2 °F 73.9 °F 72% 29.89 in 10.0 mi West 6.9 mph - N/A   Partly Cloudy
9:53 AM 87.1 °F 94.5 °F 73.0 °F 63% 29.88 in 10.0 mi West 11.5 mph 17.3 mph N/A   Partly Cloudy
10:53 AM 88.0 °F 94.7 °F 72.0 °F 59% 29.87 in 10.0 mi NW 9.2 mph - N/A   Mostly Cloudy
11:53 AM 91.0 °F 99.3 °F 73.0 °F 55% 29.87 in 10.0 mi NW 8.1 mph - N/A   Mostly Cloudy
12:53 PM 91.0 °F 98.2 °F 72.0 °F 53% 29.87 in 10.0 mi NW 11.5 mph - N/A   Mostly Cloudy
1:53 PM 91.9 °F 98.4 °F 71.1 °F 50% 29.84 in 10.0 mi NNW 9.2 mph 17.3 mph N/A   Mostly Cloudy
2:53 PM 93.0 °F 97.9 °F 69.1 °F 45% 29.85 in 10.0 mi NW 11.5 mph - N/A   Mostly Cloudy
3:53 PM 93.9 °F 97.5 °F 66.9 °F 41% 29.84 in 10.0 mi NNW 9.2 mph - N/A   Scattered Clouds
4:53 PM 95.0 °F 99.0 °F 66.9 °F 40% 29.83 in 10.0 mi North 9.2 mph - N/A   Scattered Clouds
5:53 PM 93.9 °F 98.6 °F 68.0 °F 43% 29.83 in 10.0 mi NNW 10.4 mph - N/A   Scattered Clouds
6:53 PM 93.0 °F 96.4 °F 66.9 °F 42% 29.83 in 10.0 mi NNW 6.9 mph - N/A   Partly Cloudy
7:53 PM 91.0 °F 94.3 °F 66.9 °F 45% 29.85 in 10.0 mi North 3.5 mph - N/A   Partly Cloudy
8:53 PM 88.0 °F 91.4 °F 68.0 °F 51% 29.86 in 10.0 mi North 3.5 mph - N/A   Partly Cloudy
9:53 PM 84.9 °F 88.8 °F 69.1 °F 59% 29.89 in 10.0 mi NNE 3.5 mph - N/A   Clear
10:53 PM 84.0 °F 87.0 °F 68.0 °F 58% 29.91 in 10.0 mi Calm Calm - N/A   Partly Cloudy
11:53 PM 82.9 °F 86.5 °F 69.1 °F 63% 29.92 in 10.0 mi Calm Calm - N/A   Clear